This demonstration page uses our WeatherBlox Daily Observations layout. Learn more.

Left ArrowRight Arrow

41.55636, -103.73856

Hourly Observations for January 7, 2021

Temp ( °F °C ) Dew Point ( °F °C ) Humidity (%) Winds ( mph kmh ) Pressure ( in mb ) Visibility ( mi km ) Precip ( " mm )
12:58 am 00:58 Clear 19 -7.3 12 -11.2 74 74 W 6 9 30.22 1023 10 16.0934 0 0
1:58 am 01:58 Clear 20 -6.4 11 -11.6 67 67 W 7 11 30.23 1024 10 16.0934 0 0
2:58 am 02:58 Clear 19 -7 12 -11 73 73 WSW 9 15 30.39 1029 10 16.0934 0 0
3:58 am 03:58 Clear 21 -6.3 12 -11.1 69 69 WSW 9 15 30.38 1029 10 16.0934 0 0
4:58 am 04:58 Clear 22 -5.4 12 -11.1 65 65 WSW 6 9 30.35 1028 10 16.0934 0 0
5:58 am 05:58 Clear 22 -5.4 12 -11.1 65 65 W 3 6 30.36 1028 10 16.0934 0 0
6:58 am 06:58 Clear 23 -5.1 11 -11.4 62 62 W 3 6 30.36 1028 10 16.0934 0 0
7:58 am 07:58 Sunny 18 -7.9 11 -11.8 74 74 W 3 6 30.42 1030 10 16.0934 0 0
8:58 am 08:58 Sunny 27 -2.7 17 -8.4 65 65 Calm 30.32 1027 10 16.0934 0 0
9:58 am 09:58 Sunny 33 0.7 19 -7.3 55 55 E 3 6 30.23 1024 10 16.0934 0 0
10:58 am 10:58 Sunny 38 3.5 17 -8.6 41 41 Calm 30.19 1023 10 16.0934 0 0
11:58 am 11:58 Sunny 43 5.9 15 -9.4 33 33 SE 5 7 30.16 1021 10 16.0934 0 0
12:58 pm 12:58 Sunny 46 7.6 14 -9.9 28 28 S 6 9 30.14 1021 10 16.0934 0 0
1:58 pm 13:58 Sunny 40 4.7 20 -6.4 45 45 E 9 15 30.16 1021 10 16.0934 0 0
2:58 pm 14:58 Sunny 43 6.2 15 -9.4 32 32 SSW 6 9 30.15 1021 10 16.0934 0 0
3:58 pm 15:58 Mostly Sunny 40 4.6 18 -7.9 40 40 S 8 13 30.18 1022 10 16.0934 0 0
4:58 pm 16:58 Mostly Cloudy 37 2.6 18 -7.6 47 47 SSW 9 15 30.19 1022 10 16.0934 0 0
5:58 pm 17:58 Mostly Cloudy 36 2.2 18 -7.6 49 49 SW 15 24 30.22 1023 10 16.0934 0 0
6:58 pm 18:58 Mostly Cloudy 34 1 19 -7.3 54 54 SSW 15 24 30.23 1024 10 16.0934 0 0
7:58 pm 19:58 Mostly Cloudy 35 1.4 17 -8.1 50 50 W 8 13 30.26 1025 10 16.0934 0 0
8:58 pm 20:58 Mostly Cloudy 31 -0.7 19 -7.3 61 61 NNW 6 9 30.29 1026 10 16.0934 0 0
9:58 pm 21:58 Mostly Cloudy 29 -1.4 20 -6.7 68 68 WNW 7 11 30.29 1026 10 16.0934 0 0
10:58 pm 22:58 Mostly Cloudy 31 -0.7 20 -6.4 66 66 WNW 9 15 30.27 1025 10 16.0934 0 0
11:58 pm 23:58 Partly Cloudy 30 -1.3 21 -6 71 71 WNW 8 13 30.24 1024 10 16.0934 0 0

Powered by AerisWeather